AT&T T-16 (44333 NORAD) Tracking and Keplerian Element Data

This shows tracking and keplerian element data for the satellite.

Feedback or suggestion? Click here.




ElementValue
Catalog44333
NameAT&T T-16
Epoch Orbit32
Epoch Day198.71768249
Epoch Year2019
RAAN304.6134
Inclination0.0171
Eccentricity4.24E-05
Argument of Perigee254.0013
Mean Anonmoly220.2112
Mean Motion1.00271021
Decay Rate7.7E-07
L11 44333U 19034A 19198.71768249 .00000077 00000-0 10000-3 0 9994
L22 44333 0.0171 304.6134 0000424 254.0013 220.2112 1.00271021 323

Live tracking and technical data element details for AT&T T-16 (NORAD 44333). AT&T T-16 can be tracked NOW for your location showing map with azimuth and elevation plus other details from your city location.

Track the satellite on the map from your city or location and see movement details for azimuth, elevation, latitude, longitude, range, height, and movement on the map or in text.







IsCatalogInMostPopularTable: catalog: 44333, numindb: 8
Update: records affected: 1



GetName: 44333 AT&T T-16

Hit Count: updated at: Fri, 19 Jul 2019 08:06:21 GMT